SA7AHC Weather Reports


Display with metric or nautical units.
time (UTC)temp
F
wind
direction
speed
MPH
gust
MPH
rain 1hr
in
rain 24hr
in
rain mn
in
humidity
%
barometer
mb
20260507074907 51 254 1.0 6.0 0.00 0.00 0.00 50 1016.1
20260507073904 50 44 2.0 6.0 0.00 0.00 0.00 50 1016.1
20260507072907 50 276 1.0 5.0 0.00 0.00 0.00 51 1016.0
20260507071903 48 311 2.0 7.0 0.00 0.00 0.00 53 1016.0
20260507070904 48 313 1.0 6.0 0.00 0.00 0.00 53 1016.0
20260507065909 47 259 3.0 9.0 0.00 0.00 0.00 54 1016.0
20260507064906 46 245 2.0 8.0 0.00 0.00 0.00 54 1016.0
20260507063904 45 339 2.0 6.0 0.00 0.00 0.00 56 1015.9
20260507062906 44 304 3.0 6.0 0.00 0.00 0.00 52 1015.8
20260507061906 44 274 2.0 6.0 0.00 0.00 0.00 52 1015.9
20260507060909 43 212 2.0 7.0 0.00 0.00 0.00 53 1015.8
20260507055909 43 248 3.0 6.0 0.00 0.00 0.00 55 1015.8
20260507054907 42 228 2.0 5.0 0.00 0.00 0.00 61 1015.8
20260507053905 41 266 1.0 4.0 0.00 0.00 0.00 67 1015.7
20260507052907 40 240 1.0 4.0 0.00 0.00 0.00 74 1015.5
20260507051904 38 132 1.0 2.0 0.00 0.00 0.00 79 1015.5
20260507045904 35 125 0.0 0.0 0.00 0.00 0.00 86 1015.2
20260507044906 34 124 0.0 0.0 0.00 0.00 0.00 86 1014.9
20260507043907 34 124 0.0 0.0 0.00 0.00 0.00 87 1014.9
20260507042906 34 124 0.0 0.0 0.00 0.00 0.00 87 1014.8
20260507041907 33 124 0.0 0.0 0.00 0.00 0.00 87 1014.8
20260507040906 33 124 0.0 0.0 0.00 0.00 0.00 87 1014.7
20260507035906 32 124 0.0 0.0 0.00 0.00 0.00 88 1014.6
20260507034908 32 124 0.0 0.0 0.00 0.00 0.00 87 1014.3
20260507033907 32 124 0.0 0.0 0.00 0.00 0.00 86 1014.3
20260507032906 32 124 0.0 0.0 0.00 0.00 0.00 85 1014.3
20260507031909 32 124 0.0 0.0 0.00 0.00 0.00 84 1014.2
20260507030913 32 124 0.0 0.0 0.00 0.00 0.00 81 1014.2
20260507025904 31 124 0.0 0.0 0.00 0.00 0.00 81 1014.1
20260507024903 32 124 0.0 0.0 0.00 0.00 0.00 80 1014.1
20260507023907 32 124 0.0 0.0 0.00 0.00 0.00 80 1014.1
20260507022910 32 124 0.0 0.0 0.00 0.00 0.00 80 1014.1
20260507021907 32 124 0.0 0.0 0.00 0.00 0.00 79 1014.1
20260507020903 32 124 0.0 0.0 0.00 0.00 0.00 79 1014.1
20260507015906 33 124 0.0 0.0 0.00 0.00 0.00 79 1014.2
20260507014905 33 124 0.0 0.0 0.00 0.00 0.00 78 1014.2
20260507013903 33 124 0.0 0.0 0.00 0.00 0.00 78 1014.2
20260507012906 33 124 0.0 0.0 0.00 0.00 0.00 78 1014.2
20260507011849 33 124 0.0 0.0 0.00 0.00 0.00 77 1014.1
20260507010840 34 124 0.0 0.0 0.00 0.00 0.00 78 1014.1
20260507005832 34 124 0.0 0.0 0.00 0.00 0.00 78 1014.0
20260507004832 34 124 0.0 0.0 0.00 0.00 0.00 78 1014.1
20260507003832 34 124 0.0 0.0 0.00 0.00 0.00 77 1014.1
20260507002832 34 124 0.0 0.0 0.00 0.00 0.00 77 1014.1
20260507001832 34 124 0.0 0.0 0.00 0.00 0.00 78 1014.1
20260507000835 34 124 0.0 0.0 0.00 0.00 0.00 78 1014.1
20260506235834 34 124 0.0 0.0 0.00 0.00 0.00 77 1014.1
20260506234832 34 124 0.0 0.0 0.00 0.00 0.00 76 1014.1
20260506233825 34 124 0.0 1.0 0.00 0.00 0.00 75 1014.1
20260506232817 33 124 0.0 1.0 0.00 0.00 0.00 74 1014.2
20260506231812 33 124 0.0 0.0 0.00 0.00 0.00 75 1014.2
20260506230804 34 124 0.0 2.0 0.00 0.00 0.00 75 1014.2
20260506225809 33 124 0.0 0.0 0.00 0.00 0.00 76 1014.1
20260506224807 33 124 0.0 0.0 0.00 0.00 0.00 75 1014.1
20260506223807 33 124 0.0 0.0 0.00 0.00 0.00 75 1014.1
20260506222806 33 124 0.0 2.0 0.00 0.00 0.00 73 1013.9
20260506221806 33 124 1.0 2.0 0.00 0.00 0.00 72 1013.7
20260506220803 34 111 0.0 2.0 0.00 0.00 0.00 70 1013.9
20260506215810 35 111 0.0 0.0 0.00 0.00 0.00 67 1013.7
20260506214806 34 111 0.0 0.0 0.00 0.00 0.00 68 1013.6
20260506213805 35 111 0.0 0.0 0.00 0.00 0.00 68 1013.6
20260506212749 35 111 0.0 1.0 0.00 0.00 0.00 66 1013.6
20260506211744 36 111 0.0 1.0 0.00 0.00 0.00 65 1013.7
20260506210747 38 102 1.0 4.0 0.00 0.00 0.00 62 1013.5
20260506205735 38 97 1.0 3.0 0.00 0.00 0.00 58 1013.5
20260506204729 38 97 1.0 2.0 0.00 0.00 0.00 60 1013.4
20260506203728 38 97 1.0 3.0 0.00 0.00 0.00 60 1013.6
20260506202728 38 97 1.0 2.0 0.00 0.00 0.00 60 1013.6
20260506201727 39 97 0.0 2.0 0.00 0.00 0.00 64 1013.6
20260506200725 40 97 1.0 3.0 0.00 0.00 0.00 58 1013.5
20260506195713 40 97 2.0 4.0 0.00 0.00 0.00 57 1013.5
20260506194711 41 97 2.0 4.0 0.00 0.00 0.00 57 1013.4
20260506193709 41 119 2.0 4.0 0.00 0.00 0.00 59 1013.5
20260506192706 41 121 2.0 4.0 0.00 0.00 0.00 59 1013.6
20260506191709 41 121 1.0 3.0 0.00 0.00 0.00 59 1013.4
20260506190710 41 117 1.0 2.0 0.00 0.00 0.00 60 1013.3
20260506185705 43 117 1.0 2.0 0.00 0.00 0.00 57 1013.4
20260506184704 43 117 1.0 3.0 0.00 0.00 0.00 53 1013.2
20260506183642 44 117 1.0 2.0 0.00 0.00 0.00 52 1013.0
20260506182638 45 117 1.0 2.0 0.00 0.00 0.00 51 1013.1
20260506181638 46 116 1.0 2.0 0.00 0.00 0.00 50 1013.0
20260506180635 46 120 1.0 4.0 0.00 0.00 0.00 49 1012.9
20260506175634 47 97 1.0 4.0 0.00 0.00 0.00 47 1012.9
20260506174639 48 94 1.0 5.0 0.00 0.00 0.00 45 1012.8
20260506173643 49 105 2.0 6.0 0.00 0.00 0.00 44 1012.9
20260506172635 49 71 2.0 5.0 0.00 0.00 0.00 42 1012.9
20260506171634 50 103 3.0 8.0 0.00 0.00 0.00 42 1012.9
20260506170645 51 140 4.0 9.0 0.00 0.00 0.00 38 1012.7
20260506165632 52 111 3.0 9.0 0.00 0.00 0.00 39 1012.8
20260506164635 52 78 3.0 9.0 0.00 0.00 0.00 39 1012.8
20260506163630 52 119 4.0 9.0 0.00 0.00 0.00 40 1012.9
20260506162633 52 142 3.0 9.0 0.00 0.00 0.00 39 1012.9
20260506161627 52 175 2.0 6.0 0.00 0.00 0.00 41 1012.9
20260506160628 52 86 3.0 5.0 0.00 0.00 0.00 42 1012.9
20260506155622 53 88 3.0 10.0 0.00 0.00 0.00 41 1012.9
20260506154623 53 133 3.0 10.0 0.00 0.00 0.00 39 1012.8
20260506153624 54 85 3.0 7.0 0.00 0.00 0.00 41 1013.0
20260506152621 54 123 2.0 6.0 0.00 0.00 0.00 39 1013.0
20260506151618 54 82 3.0 5.0 0.00 0.00 0.00 39 1013.0
20260506150610 54 104 3.0 7.0 0.00 0.00 0.00 39 1013.1
20260506145608 54 96 3.0 7.0 0.00 0.00 0.00 38 1013.1
20260506144610 54 74 4.0 8.0 0.00 0.00 0.00 39 1013.1
20260506143601 54 94 3.0 6.0 0.00 0.00 0.00 38 1013.1
20260506142609 55 102 3.0 6.0 0.00 0.00 0.00 37 1013.1
20260506141604 55 118 4.0 7.0 0.00 0.00 0.00 36 1013.1
20260506140604 55 81 3.0 8.0 0.00 0.00 0.00 39 1013.1
20260506135608 55 98 3.0 9.0 0.00 0.00 0.00 38 1013.0
20260506134559 55 76 4.0 10.0 0.00 0.00 0.00 39 1012.8
20260506133551 54 89 5.0 12.0 0.00 0.00 0.00 38 1012.7
20260506132556 54 88 3.0 8.0 0.00 0.00 0.00 41 1012.7
20260506131540 54 92 4.0 8.0 0.00 0.00 0.00 41 1012.7
20260506130541 55 103 4.0 7.0 0.00 0.00 0.00 39 1012.9
20260506125541 55 102 3.0 7.0 0.00 0.00 0.00 40 1012.9
20260506124539 55 78 4.0 8.0 0.00 0.00 0.00 39 1012.9
20260506123536 54 97 2.0 8.0 0.00 0.00 0.00 41 1012.8
20260506122535 55 126 3.0 6.0 0.00 0.00 0.00 42 1012.8
20260506121534 56 69 5.0 12.0 0.00 0.00 0.00 42 1012.9
20260506120534 56 84 4.0 7.0 0.00 0.00 0.00 42 1013.0
20260506115537 55 145 4.0 8.0 0.00 0.00 0.00 43 1013.0
20260506114536 54 90 4.0 9.0 0.00 0.00 0.00 42 1012.9
20260506113524 54 125 3.0 8.0 0.00 0.00 0.00 43 1013.0
20260506112520 54 87 4.0 10.0 0.00 0.00 0.00 41 1013.0
20260506111522 55 74 3.0 10.0 0.00 0.00 0.00 43 1013.1
20260506110532 54 88 4.0 9.0 0.00 0.00 0.00 41 1013.1
20260506105512 54 140 2.0 10.0 0.00 0.00 0.00 42 1013.1
20260506104513 54 76 4.0 9.0 0.00 0.00 0.00 39 1013.2
20260506103512 54 71 3.0 10.0 0.00 0.00 0.00 43 1013.4
20260506102508 53 98 4.0 11.0 0.00 0.00 0.00 44 1013.3
20260506101513 52 80 5.0 10.0 0.00 0.00 0.00 44 1013.2
20260506100505 52 95 4.0 8.0 0.00 0.00 0.00 43 1013.2
20260506095508 52 78 4.0 12.0 0.00 0.00 0.00 45 1013.2
20260506094507 52 129 4.0 8.0 0.00 0.00 0.00 42 1013.1
20260506093507 53 111 5.0 10.0 0.00 0.00 0.00 42 1013.0
20260506092507 53 75 6.0 12.0 0.00 0.00 0.00 45 1013.0
20260506091509 53 76 4.0 8.0 0.00 0.00 0.00 45 1013.2
20260506090507 52 78 6.0 10.0 0.00 0.00 0.00 44 1013.3
20260506085508 52 99 3.0 8.0 0.00 0.00 0.00 43 1013.3
20260506084507 52 90 4.0 10.0 0.00 0.00 0.00 41 1013.3
20260506083506 52 73 6.0 12.0 0.00 0.00 0.00 42 1013.3
20260506082506 51 92 6.0 15.0 0.00 0.00 0.00 44 1013.2
20260506081506 51 70 6.0 12.0 0.00 0.00 0.00 43 1013.0
20260506080506 50 87 5.0 11.0 0.00 0.00 0.00 42 1013.1